Location: Luz Observatory
(34.5000°N, 117.2833°W)
Time: 19:21:19
(UTC-07:00)

Okean 3 Rocket - Visible Passes

Search period start: 02 September 2014 00:00
Search period end: 12 September 2014 00:00
Orbit: 618 x 646 km, 82.5° (Epoch: 01 September)

Date Brightness Start Highest point End Pass type
(mag) Time Alt. Az. Time Alt. Az. Time Alt. Az.
02 Sep 3.8 19:29:25 10° N 19:33:50 51° E 19:38:12 10° SSE visible
02 Sep 6.8 21:10:09 10° WNW 21:11:24 11° W 21:12:39 10° W visible
03 Sep 3.9 19:50:40 10° N 19:55:11 72° W 19:59:38 10° S visible
04 Sep 5.6 20:12:23 10° NNW 20:16:24 32° W 20:20:22 10° SSW visible
05 Sep 6.7 20:34:56 10° NW 20:37:30 15° W 20:40:03 10° WSW visible
07 Sep 5.0 19:38:10 10° NNW 19:42:26 43° W 19:46:40 10° SSW visible
08 Sep 6.6 20:00:18 10° NW 20:03:35 20° W 20:06:50 10° SW visible
11 Sep 6.2 19:25:52 10° NNW 19:29:38 27° W 19:33:22 10° SSW visible
